Overview Statistics Trail Chart Weather Telemetry Raw packets
 

This is the latest recevied weather packets stored in our database for station/object N1JOV-7. If no packets are shown the sender has not sent any weather packets the latest 10 day(s).

<< 41 42 43 44 45 46 47 >>
Time Temp. Humidity Pressure Rain* Wind** Luminosity Snow
1788018062 22.22° C 53% 1022.4 hPa 0 mm - - -
1788017462 22.78° C 53% 1022.3 hPa 0 mm - - -
1788016861 22.22° C 52% 1022.5 hPa 0 mm - - -
1788016261 22.78° C 53% 1022.6 hPa 0 mm - - -
1788015661 22.22° C 53% 1022.6 hPa 0 mm - - -
1788015061 22.22° C 53% 1022.7 hPa 0 mm - - -
1788014461 22.22° C 54% 1022.7 hPa 0 mm - - -
1788013862 21.11° C 55% 1022.9 hPa 0 mm - - -
1788013262 21.11° C 54% 1022.7 hPa 0 mm - - -
1788012662 21.11° C 56% 1022.7 hPa 0 mm - - -
1788012062 21.11° C 58% 1022.7 hPa 0 mm - - -
1788011462 21.11° C 59% 1022.6 hPa 0 mm - - -
1788010862 21.11° C 63% 1022.7 hPa 0 mm - - -
1788010261 20° C 64% 1022.7 hPa 0 mm - - -
1788009661 20° C 70% 1022.8 hPa 0 mm - - -
1788009061 19.44° C 73% 1022.7 hPa 0 mm - - -
1788008461 18.89° C 76% 1022.6 hPa 0 mm - - -
1788007861 18.33° C 77% 1022.6 hPa 0 mm - - -
1788007261 17.78° C 79% 1022.4 hPa 0 mm - - -
1788006662 17.78° C 80% 1022.5 hPa 0 mm - - -
1788006062 16.67° C 83% 1022.3 hPa 0 mm - - -
1788005462 16.11° C 86% 1022.4 hPa 0 mm - - -
1788004862 15° C 89% 1022.6 hPa 0 mm - - -
1788004262 15° C 90% 1022.3 hPa 0 mm - - -
1788003661 14.44° C 92% 1022.4 hPa 0 mm - - -

* Rain latest hour (hover to see other rain measurements)
** Current wind speed in m/s (hover to see current wind gust speed)